Covington, KY

5:38 PM EDT on June 27, 2017 (GMT -0400)
Cincinnati-Northern KY International

Weather History for KCVG - March, 2011

Change the Weather History Date:

Saturday, March 19, 2011

  Actual Average Record
Temperature  
Mean Temperature 47 °F 45 °F  
Max Temperature 57 °F 54 °F 81 °F (1907)
Min Temperature 36 °F 35 °F 11 °F (1934)
Degree Days  
Heating Degree Days 18 20  
Month to date heating degree days 390 448  
Since 1 July heating degree days 4430 4275  
Cooling Degree Days 0 0  
Month to date cooling degree days 0 0  
Year to date cooling degree days 0 0  
Moisture  
Dew Point 33 °F    
Average Humidity 62    
Maximum Humidity 86    
Minimum Humidity 38    
Precipitation  
Precipitation 0.00 in 0.14 in 2.97 in (1943)
Month to date precipitation 4.11 2.28  
Year to date precipitation 11.48 8.09  
Snow  
Snow 0.00 in 0.10 in 3.50 in (1951)
Month to date snowfall 1.1 2.2  
Since 1 July snowfall 33.5 20.8  
Snow Depth 0.00 in    
Sea Level Pressure  
Sea Level Pressure 30.40 in    
Wind  
Wind Speed 11 mph (NE)    
Max Wind Speed 20 mph    
Max Gust Speed 23 mph    
Visibility 10 miles    
Events      
T = Trace of Precipitation, MM = Missing Value Source: NWS Daily Summary

Daily Weather History Graph

Daily Weather History Graph

Search for Another Location

Airport or City:

Trip Planner

Search our weather history database for the weather conditions in past years. The results will help you decide how hot, cold, wet, or windy it might be!

Date:

Astronomy

Mar. 19, 2011 Rise Set
Actual Time 7:44 AM EDT 7:49 PM EDT
Civil Twilight 7:17 AM EDT 8:16 PM EDT
Nautical Twilight 6:46 AM EDT 8:47 PM EDT
Astronomical Twilight 6:14 AM EDT 9:18 PM EDT
Moon 8:11 PM EDT (3/19) 7:14 AM EDT (3/19)
Length of Visible Light 12h 58m
Length of Day
12h 05m
Full, 100% of the Moon is Illuminated
Mar 19
Full
Mar 19
Full
Mar 26
Last Quarter
Apr 3
New
Apr 11
First Quarter

Hourly Weather History & Observations

Time (EDT) Temp. Windchill Dew Point Humidity Pressure Visibility Wind Dir Wind Speed Gust Speed Precip Events Conditions
12:52 AM 46.9 °F - 43.0 °F 86% 30.27 in 10.0 mi NW 4.6 mph - N/A   Mostly Cloudy
1:52 AM 46.0 °F 41.4 °F 41.0 °F 83% 30.29 in 9.0 mi North 9.2 mph - N/A   Mostly Cloudy
2:52 AM 44.1 °F 38.6 °F 36.0 °F 73% 30.31 in 10.0 mi North 10.4 mph - N/A   Mostly Cloudy
3:52 AM 43.0 °F 35.1 °F 33.1 °F 68% 30.32 in 10.0 mi NNE 17.3 mph - N/A   Overcast
4:52 AM 41.0 °F 34.7 °F 32.0 °F 70% 30.33 in 10.0 mi NNE 10.4 mph - N/A   Overcast
5:52 AM 39.0 °F 33.4 °F 30.9 °F 73% 30.35 in 10.0 mi North 8.1 mph - N/A   Scattered Clouds
6:52 AM 37.9 °F 31.5 °F 30.9 °F 76% 30.39 in 10.0 mi North 9.2 mph - N/A   Scattered Clouds
7:52 AM 36.0 °F 29.6 °F 30.9 °F 82% 30.42 in 9.0 mi North 8.1 mph - N/A   Partly Cloudy
8:52 AM 39.0 °F 31.4 °F 30.9 °F 73% 30.43 in 9.0 mi NNE 12.7 mph - N/A   Clear
9:52 AM 42.1 °F 36.1 °F 32.0 °F 67% 30.45 in 10.0 mi NE 10.4 mph - N/A   Clear
10:52 AM 45.0 °F 39.3 °F 35.1 °F 68% 30.47 in 10.0 mi NE 11.5 mph - N/A   Partly Cloudy
11:52 AM 48.2 °F - 35.6 °F 62% 30.46 in 10.0 mi NNE 10.4 mph - N/A   Partly Cloudy
12:52 PM 51.1 °F - 34.0 °F 52% 30.47 in 10.0 mi NNE 10.4 mph 17.3 mph N/A   Scattered Clouds
1:52 PM 53.1 °F - 32.0 °F 45% 30.45 in 10.0 mi NE 11.5 mph 17.3 mph N/A   Mostly Cloudy
2:52 PM 55.0 °F - 35.1 °F 47% 30.43 in 10.0 mi East 8.1 mph - N/A   Mostly Cloudy
3:52 PM 55.9 °F - 34.0 °F 44% 30.40 in 10.0 mi ENE 8.1 mph - N/A   Mostly Cloudy
4:52 PM 57.0 °F - 32.0 °F 39% 30.40 in 10.0 mi ENE 8.1 mph - N/A   Mostly Cloudy
5:52 PM 55.9 °F - 30.9 °F 39% 30.40 in 10.0 mi East 10.4 mph - N/A   Mostly Cloudy
6:52 PM 54.0 °F - 30.9 °F 41% 30.42 in 10.0 mi East 12.7 mph - N/A   Mostly Cloudy
7:52 PM 50.0 °F - 30.9 °F 48% 30.43 in 10.0 mi East 10.4 mph - N/A   Mostly Cloudy
8:52 PM 48.9 °F - 30.0 °F 48% 30.43 in 10.0 mi East 9.2 mph - N/A   Mostly Cloudy
9:52 PM 48.9 °F - 28.0 °F 44% 30.44 in 10.0 mi ENE 12.7 mph - N/A   Mostly Cloudy
10:52 PM 48.0 °F - 28.9 °F 48% 30.45 in 10.0 mi ENE 10.4 mph - N/A   Mostly Cloudy
11:52 PM 46.9 °F - 28.9 °F 50% 30.44 in 10.0 mi ENE 11.5 mph - N/A   Overcast